SCP
0 0 0 0 0 0 0 0 0 0 0 0 0 -0 0 0 0 0 0 0 0 0 0 0 0 0 0 0 0 0 -0 0 0 0 0 0 0 0 0 0 -0 -0 0 0 -0 -0 -0 -0 -0 0 0 -0 0 0
0 0 0 0 0 0 0 0 0 0 0 0 0 -0 0 0 0 0 0 0 0 0 0 0 0 0 0 0 0 0 0 0 0 -0 -0 -0 0 0 0 0 0 0 -0 0 -0 0 0 0 -0 -0 -0 -0 -0 0
0 0 0 0 0 0 0 0 0 0 0 0 0 0 0 0 0 0 0 0 0 0 0 0 0 0 0 0 0 0 0 0 0 0 -0 -0 0 0 0 0 0 0 0 0 0 0 -0 0 0 0 0 0 -0 -0
0 0 0 0 0 0 0 0 0 0 0 0 0 -0 -0 0 0 0 0 0 0 0 0 0 0 0 0 0 0 0 0 0 0 0 -0 0 0 0 0 0 0 0 0 0 0 0 0 0 0 0 0 -0 0 -0
0 0 0 0 0 0 0 0 0 0 0 0 0 -0 0 0 0 0 0 0 0 0 0 0 0 0 0 0 0 0 0 0 0 0 -0 0 0 0 0 0 -0 0 0 0 0 0 -0 0 0 0 0 0 -0 -0
0 0 0 0 0 0 0 0 0 0 0 0 -0 0 0 0 0 0 0 0 0 0 0 0 0 0 0 0 0 0 0 0 0 -0 -0 0 0 0 0 -0 -0 0 0 0 0 0 0 0 0 0 0 0 -0 -0
0 0 0 0 0 0 0 0 0 0 0 -0 0 0 -0 0 0 0 0 0 0 0 0 0 0 0 0 0 0 0 0 0 0 -0 0 0 0 0 0 0 0 0 0 0 0 0 0 0 0 0 -0 -0 -0 -0
0 0 -0 0 0 0 0 0 0 0 0 0 0 -0 -0 0 0 0 0 0 0 0 0 0 0 0 0 0 0 0 0 0 -0 0 0 0 0 0 -0 0 0 0 0 0 0 0 0 0 0 0 0 -0 -0 -0
0 -0 0 0 0 0 0 0 0 0 0 0 -0 -0 -0 0 0 0 0 0 0 0 0 0 0 0 0 0 0 0 0 0 0 -0 0 0 0 0 0 0 0 0 0 0 0 0 0 0 0 0 0 0 0 0
0 0 0 0 0 0 0 0 0 0 0 -0 -0 -0 0 0 0 0 0 0 0 0 0 0 0 0 0 0 0 0 0 0 -0 -0 -0 0 0 0 -0 -0 -0 -0 0 0 0 0 0 0 0 0 0 0 -0 -0
0 0 0 -0 0 0 0 0 0 0 0 0 0 -0 0 0 0 0 0 0 0 0 0 0 0 0 0 0 0 0 0 -0 0 -0 -0 0 0 0 0 0 -0 0 0 -0 0 0 0 0 0 0 -0 -0 -0 -0
0 -0 0 0 0 0 0 0 0 0 0 0 0 0 0 0 0 0 0 0 0 0 0 0 0 0 0 0 0 0 0 0 -0 0 0 0 -0 0 0 0 0 -0 0 0 0 0 0 0 -0 0 0 -0 -0 -0
0 -0 0 0 -0 0 0 0 0 0 0 0 0 0 0 0 0 0 0 0 0 0 0 0 0 0 0 0 0 0 0 0 0 0 0 -0 -0 0 0 0 0 0 0 0 0 -0 0 0 0 -0 -0 -0 -0 -0
0 0 0 0 -0 0 -0 0 0 0 0 -0 -0 -0 -0 -0 0 0 0 0 0 0 0 0 0 0 0 0 0 0 0 0 0 0 0 -0 -0 0 0 0 0 0 0 0 0 0 0 0 0 -0 -0 -0 -0 -0
0 0 0 0 0 0 0 0 0 0 0 -0 -0 -0 -0 0 -0 0 0 0 0 0 0 0 0 0 0 0 0 0 0 0 -0 -0 0 0 0 0 0 0 0 0 0 0 0 0 0 0 -0 0 0 0 0 0
0 0 0 0 0 0 0 0 0 0 0 -0 -0 -0 -0 -0 0 0 0 0 0 0 0 0 0 0 0 0 0 0 0 0 0 0 0 0 0 0 0 -0 0 0 0 0 0 0 0 0 0 0 0 0 0 0
0 0 0 0 0 0 0 0 0 0 0 0 0 0 -0 -0 -0 0 0 0 0 0 0 0 0 0 0 0 0 0 0 0 0 0 0 0 0 0 0 0 0 0 0 0 0 0 0 0 0 0 0 0 0 0
0 0 0 0 0 0 0 0 0 0 0 0 0 0 0 0 -0 -0 0 0 0 0 0 0 0 0 0 0 0 0 0 0 0 0 0 0 0 0 -0 0 0 0 0 0 0 0 0 0 0 0 0 0 0 0
0 0 0 0 0 0 0 0 0 0 0 0 0 0 0 0 0 0 0 0 0 0 0 0 0 0 0 0 0 0 0 0 0 0 0 0 0 0 0 0 0 0 0 0 0 0 0 0 0 0 0 0 0 0
0 0 0 0 0 0 0 0 0 0 0 0 0 0 0 0 0 0 0 0 0 0 0 0 0 0 0 0 0 0 0 0 -0 0 0 0 0 0 0 0 0 0 0 0 0 0 0 0 0 0 0 0 0 0
0 0 0 0 0 0 0 0 0 0 0 0 0 0 0 0 0 0 0 0 0 0 0 0 0 0 0 0 0 -0 0 0 0 0 0 0 0 0 0 0 0 0 0 0 0 0 0 0 0 0 0 0 0 0
0 0 0 0 0 0 0 0 0 0 0 0 0 0 0 0 0 0 0 0 0 0 0 0 0 0 0 0 0 0 0 0 -0 0 0 0 0 0 0 0 0 0 0 0 0 0 0 0 0 0 0 0 0 0
0 0 0 0 0 0 0 0 0 0 0 0 0 0 0 0 0 0 0 0 0 0 0 0 0 0 0 0 0 0 0 0 0 0 0 0 0 0 0 0 0 0 0 0 0 0 0 0 0 0 0 0 0 0
0 0 0 0 0 0 0 0 0 0 0 0 0 0 0 0 0 0 0 0 0 0 0 0 0 0 0 0 0 0 0 0 0 0 0 0 0 0 0 0 0 0 0 0 0 0 0 0 0 0 0 0 0 0
0 0 0 0 0 0 0 0 0 0 0 0 0 0 0 0 0 0 0 0 0 0 0 0 0 0 0 0 0 0 0 0 0 0 0 0 0 0 0 0 0 0 0 0 0 0 0 0 0 0 0 0 0 0
0 0 0 0 0 0 0 0 0 0 0 0 0 0 0 0 0 0 0 0 0 0 0 0 0 0 0 0 0 0 0 0 0 0 0 0 0 0 0 0 0 0 0 0 0 0 0 0 0 0 0 0 0 0
0 0 0 0 0 0 0 0 0 0 0 0 0 0 0 0 0 0 0 0 0 0 0 0 0 0 0 0 0 0 0 0 0 0 0 0 0 0 0 0 0 0 0 0 0 0 0 0 0 0 0 0 0 0
0 0 0 0 0 0 0 0 0 0 0 0 0 0 0 0 0 0 0 0 0 0 0 0 0 0 0 0 0 0 0 0 0 0 0 0 0 0 0 0 0 0 0 0 0 0 0 0 0 0 0 0 0 0
0 0 0 0 0 0 0 0 0 0 0 0 0 0 0 0 0 0 0 0 0 0 0 0 0 0 0 0 0 0 0 0 0 0 0 0 0 0 0 0 0 0 0 0 0 0 0 0 0 0 0 0 0 0
0 0 0 0 0 0 0 0 0 0 0 0 0 0 0 0 0 0 0 0 0 0 0 0 0 0 0 0 0 0 0 0 0 0 0 0 0 0 0 0 0 0 0 0 0 0 0 0 0 0 0 0 0 0
0 0 0 0 0 0 0 0 0 0 0 0 0 0 0 0 0 0 0 0 0 0 0 0 0 0 0 0 0 0 0 0 0 0 0 0 0 0 0 0 0 0 0 0 0 0 0 0 0 0 0 0 0 0
0 0 0 0 0 0 0 0 0 0 0 0 0 0 0 0 0 0 0 0 0 0 0 0 0 0 0 0 0 0 0 0 0 0 0 0 0 0 0 0 0 0 0 0 0 0 0 0 0 0 0 0 0 0
0 0 0 0 0 0 0 0 0 0 0 0 0 0 0 0 0 0 0 0 0 0 0 0 0 0 -0 -0 -0 0 0 0 0 0 0 0 0 0 0 0 0 0 0 0 0 0 0 0 0 0 0 0 0 0
Wind_Speed_500mb
29 28 27 32 31 34 36 37 38 39 39 37 37 36 40 38 37 32 26 15 23 12 16 28 32 15 13 13 8 10 7 4 4 5 5 6 6 3 5 4 7 13 10 9 7 7 6 5 6 6 7 23 20 12
30 28 28 33 33 33 38 37 38 39 39 38 39 39 37 35 32 32 26 28 29 20 10 22 24 30 31 20 18 20 0 8 9 6 6 5 5 5 5 5 6 8 9 3 10 6 4 6 16 16 14 16 12 5
31 27 29 33 39 34 39 40 40 39 39 39 38 40 40 38 34 30 32 32 25 10 9 14 17 24 25 24 21 11 9 13 12 11 1 4 7 1 6 9 4 10 9 7 5 7 10 10 10 13 18 8 6 9
32 27 27 34 43 36 38 43 44 42 41 41 40 42 40 37 35 31 30 23 21 12 7 3 16 19 27 27 27 27 18 16 13 15 7 5 5 6 4 5 6 3 11 9 11 17 19 9 8 7 9 9 17 25
32 26 27 35 44 39 36 42 44 44 44 45 43 46 38 38 37 34 25 13 18 11 7 4 4 17 22 26 30 30 28 23 12 6 6 6 6 2 5 3 10 12 11 7 4 2 5 5 2 5 11 15 20 32
33 28 27 35 46 40 39 43 45 45 46 48 46 48 39 40 35 24 1 21 23 21 6 3 1 3 14 16 17 19 24 22 11 9 6 10 17 6 6 8 13 30 25 17 5 1 3 4 9 10 18 20 25 37
32 29 28 35 46 45 40 44 46 47 50 52 53 49 50 42 28 22 8 14 20 14 5 2 3 0 4 6 7 11 16 12 13 6 8 7 9 11 5 16 13 16 21 24 24 12 5 14 7 18 23 30 35 43
34 32 30 34 46 49 41 44 47 49 53 57 58 44 17 6 13 21 22 23 8 6 5 1 1 2 11 6 7 12 10 12 12 7 8 5 7 6 9 23 40 37 28 22 26 25 11 15 22 29 31 40 46 50
38 30 32 34 44 48 44 43 47 53 60 61 27 8 12 7 5 9 14 22 12 10 6 3 4 3 10 5 7 7 4 4 6 4 4 5 6 11 21 21 22 22 17 12 26 23 17 22 33 38 42 48 53 55
39 30 29 33 43 42 45 43 48 55 60 22 8 7 5 1 7 11 6 5 11 13 8 4 6 2 7 3 2 0 2 2 3 2 6 6 8 40 45 31 29 20 18 23 26 20 28 34 43 47 48 49 52 58
42 30 25 34 39 39 42 41 51 57 39 16 14 8 12 10 8 3 2 6 10 4 11 6 19 6 15 5 5 4 1 1 4 1 4 5 7 6 10 22 28 41 39 19 26 23 34 31 50 55 54 55 61 60
38 26 25 33 37 36 39 43 51 49 19 11 10 9 8 5 5 0 3 4 3 4 7 3 4 8 7 6 3 2 3 1 7 7 4 6 7 10 24 19 18 20 30 25 25 13 23 28 47 57 58 57 61 59
33 24 23 33 35 34 36 45 48 22 6 2 3 3 5 4 5 5 10 4 3 9 11 2 2 8 7 6 5 3 5 6 2 3 7 9 11 20 21 18 8 20 26 25 24 16 25 34 48 52 58 60 61 60
29 24 23 31 33 28 37 41 37 7 4 3 3 5 3 3 5 4 3 4 8 7 16 4 3 3 3 3 2 5 2 2 4 6 11 5 11 23 18 10 4 19 27 28 24 24 30 41 53 53 59 65 63 61
24 25 25 29 23 28 34 35 18 6 2 2 3 4 5 4 3 5 10 12 10 14 20 4 3 4 1 2 3 4 3 8 10 9 5 8 16 16 10 6 7 20 25 26 26 30 37 49 56 61 64 64 60 58
20 26 23 15 20 29 32 23 5 7 5 1 2 3 3 3 2 3 7 10 17 21 6 6 2 3 7 4 6 13 7 10 5 6 11 14 13 9 8 3 8 21 27 27 28 34 44 55 61 67 68 64 61 58
16 25 13 19 22 28 27 6 7 6 4 3 4 5 2 3 7 4 6 6 21 15 1 2 6 3 2 2 6 8 7 6 25 35 27 22 15 11 6 4 10 20 27 29 31 38 50 58 64 70 71 66 61 56
30 27 23 21 19 23 13 5 6 9 6 7 5 8 8 8 9 7 4 8 14 11 11 2 3 6 7 7 4 5 12 44 36 35 36 29 22 16 10 8 14 20 27 32 35 42 51 61 69 72 69 66 63 58
21 25 21 16 17 10 7 5 6 9 10 5 7 10 9 10 15 16 13 6 8 13 16 9 7 7 6 3 3 13 23 24 36 55 43 34 30 20 16 16 19 24 28 32 38 47 57 67 72 73 73 71 67 63
25 24 22 18 12 5 8 5 6 9 6 3 6 9 8 9 11 13 12 3 3 4 7 6 5 6 9 14 27 36 34 35 39 48 43 24 26 24 21 22 24 28 32 37 44 52 62 64 65 69 68 64 63 64
25 24 23 16 9 15 7 6 5 8 6 4 3 8 7 7 7 4 4 4 9 10 6 6 7 19 30 35 35 37 42 39 37 36 46 51 31 30 26 26 28 32 38 45 51 56 61 69 75 72 64 65 62 57
18 16 11 13 10 8 5 6 4 6 4 4 2 6 6 4 5 4 9 6 9 10 8 10 23 33 40 41 40 37 39 38 38 38 36 44 45 38 38 35 37 41 43 45 52 63 70 72 75 69 61 62 58 59
15 17 11 12 10 10 5 8 5 4 4 2 1 3 4 5 5 7 6 10 13 15 12 9 19 29 37 39 35 32 31 37 41 38 37 36 44 44 42 41 43 46 47 50 54 63 71 75 71 65 69 66 64 61
18 11 10 12 11 7 8 6 4 3 4 2 3 5 4 5 7 3 7 9 14 16 11 10 28 45 49 47 43 40 34 34 38 40 34 37 41 45 41 42 44 46 49 51 57 63 73 79 75 75 71 71 68 63
9 10 9 4 9 7 5 3 2 3 5 5 6 5 3 3 3 5 7 8 17 24 17 21 35 46 50 57 56 47 35 34 37 44 36 31 34 36 38 39 43 47 49 54 62 71 77 79 77 76 74 71 69 63
9 13 11 14 7 9 9 8 9 10 4 7 9 3 2 3 3 11 6 8 15 24 25 33 50 60 61 52 52 55 45 36 39 45 42 33 33 37 37 42 48 53 52 55 65 77 84 85 81 77 74 70 63 60
9 11 9 10 10 13 7 6 8 5 9 11 6 6 4 4 10 7 13 18 19 23 34 48 51 55 61 62 53 48 46 40 41 46 41 37 31 34 37 44 54 56 55 59 66 80 85 81 79 76 75 70 62 55
9 19 13 21 9 10 9 5 10 13 8 13 14 7 12 15 10 9 12 20 28 44 51 54 52 54 57 54 50 49 47 39 37 37 37 36 36 33 36 37 41 42 55 60 62 72 76 76 73 75 72 68 62 52
13 18 24 7 7 9 17 13 11 16 16 26 11 8 9 15 18 24 32 41 49 53 59 55 51 44 48 47 47 43 39 34 32 32 35 34 30 34 32 30 34 47 55 61 65 75 77 69 74 72 67 65 60 54
16 33 11 9 12 12 12 22 7 13 20 20 12 12 19 36 46 46 49 55 57 51 44 47 45 43 44 42 41 34 29 31 35 40 39 37 33 29 33 37 42 50 61 71 79 82 81 86 81 76 75 64 57 56
25 27 8 11 7 7 13 20 16 12 11 14 25 27 33 33 55 54 41 39 33 33 38 36 32 32 35 34 34 35 31 20 25 32 41 33 24 29 38 45 50 58 68 78 85 85 87 87 86 78 65 60 57 49
16 17 12 6 4 6 10 14 10 8 7 8 10 13 12 11 12 15 18 17 22 26 27 33 38 38 34 33 29 28 28 26 24 20 28 30 28 31 42 49 55 65 71 76 81 90 90 86 78 71 66 61 54 46
10 10 7 8 5 5 9 9 3 5 6 6 5 5 8 8 13 10 13 14 15 19 23 25 27 22 20 16 12 11 11 9 9 15 20 25 30 40 50 57 63 73 84 92 91 86 81 76 73 67 61 55 50 45
Wind_Direction_500mb
324 324 334 332 332 336 340 346 346 347 350 349 345 339 339 347 354 349 338 346 6 290 278 201 206 169 159 172 145 143 153 174 155 222 241 235 244 243 267 233 189 204 191 208 212 246 293 193 260 322 340 321 324 355
315 322 329 329 322 328 326 332 336 340 342 343 342 339 336 333 341 344 332 318 329 245 265 212 209 215 216 228 198 181 350 139 159 223 226 301 237 225 265 270 183 227 231 289 229 259 356 259 265 289 307 292 300 287
313 317 327 326 321 323 319 320 324 329 334 340 342 333 327 326 327 333 325 314 337 292 280 210 213 216 225 221 201 164 209 190 195 206 285 243 264 301 236 236 271 222 207 249 293 209 257 276 284 300 326 307 247 186
310 313 324 323 317 319 320 316 317 320 324 327 332 332 327 323 321 317 316 309 307 291 277 250 219 219 219 216 218 230 227 194 204 193 219 238 268 222 258 305 259 340 170 219 250 282 292 268 281 318 7 77 125 144
308 309 323 321 316 320 321 316 313 316 317 318 322 321 325 316 316 306 302 276 261 225 321 309 233 224 226 226 227 230 235 225 195 200 214 228 227 171 216 272 241 196 221 222 294 116 287 351 104 88 105 120 136 144
310 309 320 320 320 322 321 316 315 315 316 314 315 313 313 307 306 313 143 135 174 188 254 233 244 228 208 208 212 220 221 224 209 206 225 242 237 227 236 247 243 215 227 234 293 292 244 215 148 136 130 135 143 141
313 313 319 323 314 324 320 314 317 319 315 314 311 311 305 291 266 232 224 161 183 195 237 284 359 306 191 183 194 205 202 211 213 237 223 244 270 201 255 253 253 239 240 239 241 225 207 180 200 160 152 146 147 138
318 313 317 320 313 320 322 319 321 321 318 316 314 313 312 286 212 232 249 251 225 255 241 176 180 239 183 185 204 194 203 206 215 234 233 235 198 230 255 244 249 252 249 241 228 217 216 189 173 161 157 153 149 142
313 310 317 320 311 319 325 322 323 323 328 323 328 65 78 78 110 159 201 233 240 272 295 154 164 200 189 231 195 185 220 232 226 243 236 221 188 228 239 255 255 245 230 237 204 200 197 182 173 166 162 160 155 150
306 306 311 313 312 318 325 325 327 333 338 349 68 76 100 136 332 95 194 200 203 195 231 230 144 183 196 177 156 197 199 288 271 240 306 233 256 254 260 259 262 265 286 225 178 175 182 184 180 172 169 165 162 157
303 302 308 306 314 319 323 325 333 338 352 16 31 16 27 118 100 157 286 221 178 201 184 215 197 178 208 174 195 206 205 291 263 97 277 266 260 246 283 289 274 255 251 254 224 247 228 212 183 172 171 171 167 160
300 295 304 305 309 317 321 328 335 336 330 355 337 342 10 21 84 277 259 281 134 183 168 180 217 209 199 192 151 157 214 209 250 345 275 259 253 274 323 312 302 219 213 226 213 236 202 198 186 180 175 170 164 163
297 291 303 302 307 315 321 329 337 336 17 63 18 336 27 347 81 37 353 356 80 360 12 68 186 196 170 185 91 159 221 239 8 256 248 246 289 316 326 321 302 185 184 193 193 198 185 181 182 181 172 170 166 164
293 290 297 297 304 311 323 330 341 29 336 83 7 47 21 67 78 43 342 312 302 300 337 302 255 206 169 115 132 215 167 287 254 249 242 254 287 321 329 317 238 185 180 183 188 183 178 176 172 174 173 169 168 165
285 284 288 291 287 309 322 331 346 41 322 84 294 127 92 49 256 355 343 320 349 328 325 224 246 213 120 151 188 102 204 242 227 236 240 279 317 329 341 321 213 191 186 183 183 180 176 172 171 169 170 170 170 166
272 283 283 256 289 311 322 329 11 93 304 199 120 136 138 124 283 32 352 312 4 339 304 229 172 170 228 169 164 211 194 233 263 237 286 316 326 330 333 314 197 188 188 188 183 179 176 173 172 169 168 169 170 170
237 256 266 277 302 312 320 290 118 91 278 233 208 178 162 206 223 268 318 306 328 323 289 323 211 192 53 239 250 190 217 333 330 326 321 314 319 321 312 250 195 188 188 189 186 180 178 175 172 169 166 167 169 165
233 260 272 285 300 311 299 212 125 122 226 243 228 217 211 258 264 285 285 310 336 337 321 334 262 216 219 212 241 19 335 330 341 331 324 318 311 297 270 226 190 187 188 186 186 182 179 175 172 171 168 165 164 162
255 267 270 279 304 309 253 201 157 135 216 216 243 255 251 261 266 274 291 299 289 273 295 288 245 217 218 197 261 314 323 329 320 326 316 308 302 285 259 227 199 189 189 188 181 179 177 179 178 172 168 165 166 167
236 252 268 277 273 266 246 187 179 124 183 201 226 249 252 270 284 286 294 304 276 257 239 229 262 33 18 340 323 313 312 322 324 324 322 338 309 282 252 233 213 194 187 184 184 184 181 177 176 174 173 170 174 170
234 252 260 243 241 232 256 212 136 144 181 198 231 280 274 281 283 274 225 188 220 220 220 245 281 310 318 317 318 315 309 310 304 305 306 296 309 295 254 230 218 205 196 190 187 182 182 180 176 173 171 182 178 174
221 220 205 208 228 223 218 204 143 161 173 115 220 259 260 267 266 227 283 233 237 238 243 279 305 314 315 314 311 306 304 301 297 291 297 287 282 290 260 235 219 210 204 201 193 187 184 180 177 175 179 176 173 171
190 194 202 211 197 200 194 179 194 185 143 221 257 261 241 254 244 297 250 227 241 226 233 301 331 333 323 319 310 302 299 297 293 291 286 283 276 279 266 242 228 220 210 201 200 194 185 180 177 180 177 175 171 168
171 186 204 196 193 171 159 154 166 171 124 159 213 264 238 243 321 274 252 254 217 204 220 306 335 335 332 327 321 314 302 294 292 285 284 277 269 275 269 246 232 225 221 212 199 193 186 181 180 179 175 175 174 170
177 213 197 192 178 133 150 123 79 144 220 190 194 265 244 357 275 259 246 265 224 216 238 301 319 324 319 317 314 311 308 296 288 288 277 278 268 258 260 246 231 226 219 210 198 192 187 183 179 179 178 177 172 170
214 197 174 190 170 182 171 149 188 196 158 185 226 252 95 128 227 247 238 238 231 225 265 299 313 314 311 310 306 304 304 295 283 278 277 274 266 257 250 244 227 217 212 211 206 192 187 182 180 179 176 174 173 169
215 218 193 184 160 139 105 96 125 143 178 201 189 155 124 193 240 249 240 242 255 276 296 305 306 305 303 302 301 296 293 288 277 273 272 263 260 255 248 244 237 228 213 205 204 198 189 180 179 177 173 171 170 170
205 169 181 177 158 164 136 149 175 203 203 178 140 180 192 201 231 214 230 276 294 305 306 307 305 303 297 296 296 293 290 284 274 268 262 256 254 248 238 237 236 232 216 206 198 189 185 181 179 178 173 165 161 162
183 174 152 132 138 191 210 191 209 209 186 175 171 207 234 225 259 277 289 299 303 302 304 304 305 297 291 293 290 289 284 276 266 257 253 252 250 240 225 220 217 216 208 196 188 181 179 176 175 168 167 164 157 159
183 171 143 165 168 210 214 199 209 193 192 202 225 256 265 271 282 289 292 298 299 298 300 303 304 300 299 295 293 284 272 265 251 242 241 249 249 245 221 208 204 204 196 186 179 176 175 171 167 165 165 165 163 165
160 174 128 169 218 207 203 200 204 216 229 240 244 254 265 286 289 295 294 292 287 295 301 302 302 302 299 296 296 295 293 273 261 245 229 238 252 234 213 201 196 193 188 183 177 171 165 163 166 166 159 157 161 158
158 175 145 174 234 187 174 187 194 219 240 238 241 245 278 273 276 282 278 278 298 305 306 309 313 313 300 290 285 282 283 272 276 246 221 230 233 210 198 190 185 183 179 172 166 164 166 163 158 152 156 161 155 155
121 135 131 121 123 181 177 172 174 297 249 265 265 259 241 250 254 262 276 283 302 311 323 340 335 335 345 340 312 302 302 287 248 219 216 214 202 189 185 180 176 174 171 167 161 157 158 153 148 156 157 155 154 153
Wind_Speed_850mb
29 28 27 32 31 34 36 37 38 39 39 37 37 36 40 38 37 32 26 15 23 12 16 28 32 15 13 13 8 10 7 4 4 5 5 6 6 3 5 4 7 13 10 9 7 7 6 5 6 6 7 23 20 12
30 28 28 33 33 33 38 37 38 39 39 38 39 39 37 35 32 32 26 28 29 20 10 22 24 30 31 20 18 20 0 8 9 6 6 5 5 5 5 5 6 8 9 3 10 6 4 6 16 16 14 16 12 5
31 27 29 33 39 34 39 40 40 39 39 39 38 40 40 38 34 30 32 32 25 10 9 14 17 24 25 24 21 11 9 13 12 11 1 4 7 1 6 9 4 10 9 7 5 7 10 10 10 13 18 8 6 9
32 27 27 34 43 36 38 43 44 42 41 41 40 42 40 37 35 31 30 23 21 12 7 3 16 19 27 27 27 27 18 16 13 15 7 5 5 6 4 5 6 3 11 9 11 17 19 9 8 7 9 9 17 25
32 26 27 35 44 39 36 42 44 44 44 45 43 46 38 38 37 34 25 13 18 11 7 4 4 17 22 26 30 30 28 23 12 6 6 6 6 2 5 3 10 12 11 7 4 2 5 5 2 5 11 15 20 32
33 28 27 35 46 40 39 43 45 45 46 48 46 48 39 40 35 24 1 21 23 21 6 3 1 3 14 16 17 19 24 22 11 9 6 10 17 6 6 8 13 30 25 17 5 1 3 4 9 10 18 20 25 37
32 29 28 35 46 45 40 44 46 47 50 52 53 49 50 42 28 22 8 14 20 14 5 2 3 0 4 6 7 11 16 12 13 6 8 7 9 11 5 16 13 16 21 24 24 12 5 14 7 18 23 30 35 43
34 32 30 34 46 49 41 44 47 49 53 57 58 44 17 6 13 21 22 23 8 6 5 1 1 2 11 6 7 12 10 12 12 7 8 5 7 6 9 23 40 37 28 22 26 25 11 15 22 29 31 40 46 50
38 30 32 34 44 48 44 43 47 53 60 61 27 8 12 7 5 9 14 22 12 10 6 3 4 3 10 5 7 7 4 4 6 4 4 5 6 11 21 21 22 22 17 12 26 23 17 22 33 38 42 48 53 55
39 30 29 33 43 42 45 43 48 55 60 22 8 7 5 1 7 11 6 5 11 13 8 4 6 2 7 3 2 0 2 2 3 2 6 6 8 40 45 31 29 20 18 23 26 20 28 34 43 47 48 49 52 58
42 30 25 34 39 39 42 41 51 57 39 16 14 8 12 10 8 3 2 6 10 4 11 6 19 6 15 5 5 4 1 1 4 1 4 5 7 6 10 22 28 41 39 19 26 23 34 31 50 55 54 55 61 60
38 26 25 33 37 36 39 43 51 49 19 11 10 9 8 5 5 0 3 4 3 4 7 3 4 8 7 6 3 2 3 1 7 7 4 6 7 10 24 19 18 20 30 25 25 13 23 28 47 57 58 57 61 59
33 24 23 33 35 34 36 45 48 22 6 2 3 3 5 4 5 5 10 4 3 9 11 2 2 8 7 6 5 3 5 6 2 3 7 9 11 20 21 18 8 20 26 25 24 16 25 34 48 52 58 60 61 60
29 24 23 31 33 28 37 41 37 7 4 3 3 5 3 3 5 4 3 4 8 7 16 4 3 3 3 3 2 5 2 2 4 6 11 5 11 23 18 10 4 19 27 28 24 24 30 41 53 53 59 65 63 61
24 25 25 29 23 28 34 35 18 6 2 2 3 4 5 4 3 5 10 12 10 14 20 4 3 4 1 2 3 4 3 8 10 9 5 8 16 16 10 6 7 20 25 26 26 30 37 49 56 61 64 64 60 58
20 26 23 15 20 29 32 23 5 7 5 1 2 3 3 3 2 3 7 10 17 21 6 6 2 3 7 4 6 13 7 10 5 6 11 14 13 9 8 3 8 21 27 27 28 34 44 55 61 67 68 64 61 58
16 25 13 19 22 28 27 6 7 6 4 3 4 5 2 3 7 4 6 6 21 15 1 2 6 3 2 2 6 8 7 6 25 35 27 22 15 11 6 4 10 20 27 29 31 38 50 58 64 70 71 66 61 56
30 27 23 21 19 23 13 5 6 9 6 7 5 8 8 8 9 7 4 8 14 11 11 2 3 6 7 7 4 5 12 44 36 35 36 29 22 16 10 8 14 20 27 32 35 42 51 61 69 72 69 66 63 58
21 25 21 16 17 10 7 5 6 9 10 5 7 10 9 10 15 16 13 6 8 13 16 9 7 7 6 3 3 13 23 24 36 55 43 34 30 20 16 16 19 24 28 32 38 47 57 67 72 73 73 71 67 63
25 24 22 18 12 5 8 5 6 9 6 3 6 9 8 9 11 13 12 3 3 4 7 6 5 6 9 14 27 36 34 35 39 48 43 24 26 24 21 22 24 28 32 37 44 52 62 64 65 69 68 64 63 64
25 24 23 16 9 15 7 6 5 8 6 4 3 8 7 7 7 4 4 4 9 10 6 6 7 19 30 35 35 37 42 39 37 36 46 51 31 30 26 26 28 32 38 45 51 56 61 69 75 72 64 65 62 57
18 16 11 13 10 8 5 6 4 6 4 4 2 6 6 4 5 4 9 6 9 10 8 10 23 33 40 41 40 37 39 38 38 38 36 44 45 38 38 35 37 41 43 45 52 63 70 72 75 69 61 62 58 59
15 17 11 12 10 10 5 8 5 4 4 2 1 3 4 5 5 7 6 10 13 15 12 9 19 29 37 39 35 32 31 37 41 38 37 36 44 44 42 41 43 46 47 50 54 63 71 75 71 65 69 66 64 61
18 11 10 12 11 7 8 6 4 3 4 2 3 5 4 5 7 3 7 9 14 16 11 10 28 45 49 47 43 40 34 34 38 40 34 37 41 45 41 42 44 46 49 51 57 63 73 79 75 75 71 71 68 63
9 10 9 4 9 7 5 3 2 3 5 5 6 5 3 3 3 5 7 8 17 24 17 21 35 46 50 57 56 47 35 34 37 44 36 31 34 36 38 39 43 47 49 54 62 71 77 79 77 76 74 71 69 63
9 13 11 14 7 9 9 8 9 10 4 7 9 3 2 3 3 11 6 8 15 24 25 33 50 60 61 52 52 55 45 36 39 45 42 33 33 37 37 42 48 53 52 55 65 77 84 85 81 77 74 70 63 60
9 11 9 10 10 13 7 6 8 5 9 11 6 6 4 4 10 7 13 18 19 23 34 48 51 55 61 62 53 48 46 40 41 46 41 37 31 34 37 44 54 56 55 59 66 80 85 81 79 76 75 70 62 55
9 19 13 21 9 10 9 5 10 13 8 13 14 7 12 15 10 9 12 20 28 44 51 54 52 54 57 54 50 49 47 39 37 37 37 36 36 33 36 37 41 42 55 60 62 72 76 76 73 75 72 68 62 52
13 18 24 7 7 9 17 13 11 16 16 26 11 8 9 15 18 24 32 41 49 53 59 55 51 44 48 47 47 43 39 34 32 32 35 34 30 34 32 30 34 47 55 61 65 75 77 69 74 72 67 65 60 54
16 33 11 9 12 12 12 22 7 13 20 20 12 12 19 36 46 46 49 55 57 51 44 47 45 43 44 42 41 34 29 31 35 40 39 37 33 29 33 37 42 50 61 71 79 82 81 86 81 76 75 64 57 56
25 27 8 11 7 7 13 20 16 12 11 14 25 27 33 33 55 54 41 39 33 33 38 36 32 32 35 34 34 35 31 20 25 32 41 33 24 29 38 45 50 58 68 78 85 85 87 87 86 78 65 60 57 49
16 17 12 6 4 6 10 14 10 8 7 8 10 13 12 11 12 15 18 17 22 26 27 33 38 38 34 33 29 28 28 26 24 20 28 30 28 31 42 49 55 65 71 76 81 90 90 86 78 71 66 61 54 46
10 10 7 8 5 5 9 9 3 5 6 6 5 5 8 8 13 10 13 14 15 19 23 25 27 22 20 16 12 11 11 9 9 15 20 25 30 40 50 57 63 73 84 92 91 86 81 76 73 67 61 55 50 45
Wind_Direction_850mb
324 324 334 332 332 336 340 346 346 347 350 349 345 339 339 347 354 349 338 346 6 290 278 201 206 169 159 172 145 143 153 174 155 222 241 235 244 243 267 233 189 204 191 208 212 246 293 193 260 322 340 321 324 355
315 322 329 329 322 328 326 332 336 340 342 343 342 339 336 333 341 344 332 318 329 245 265 212 209 215 216 228 198 181 350 139 159 223 226 301 237 225 265 270 183 227 231 289 229 259 356 259 265 289 307 292 300 287
313 317 327 326 321 323 319 320 324 329 334 340 342 333 327 326 327 333 325 314 337 292 280 210 213 216 225 221 201 164 209 190 195 206 285 243 264 301 236 236 271 222 207 249 293 209 257 276 284 300 326 307 247 186
310 313 324 323 317 319 320 316 317 320 324 327 332 332 327 323 321 317 316 309 307 291 277 250 219 219 219 216 218 230 227 194 204 193 219 238 268 222 258 305 259 340 170 219 250 282 292 268 281 318 7 77 125 144
308 309 323 321 316 320 321 316 313 316 317 318 322 321 325 316 316 306 302 276 261 225 321 309 233 224 226 226 227 230 235 225 195 200 214 228 227 171 216 272 241 196 221 222 294 116 287 351 104 88 105 120 136 144
310 309 320 320 320 322 321 316 315 315 316 314 315 313 313 307 306 313 143 135 174 188 254 233 244 228 208 208 212 220 221 224 209 206 225 242 237 227 236 247 243 215 227 234 293 292 244 215 148 136 130 135 143 141
313 313 319 323 314 324 320 314 317 319 315 314 311 311 305 291 266 232 224 161 183 195 237 284 359 306 191 183 194 205 202 211 213 237 223 244 270 201 255 253 253 239 240 239 241 225 207 180 200 160 152 146 147 138
318 313 317 320 313 320 322 319 321 321 318 316 314 313 312 286 212 232 249 251 225 255 241 176 180 239 183 185 204 194 203 206 215 234 233 235 198 230 255 244 249 252 249 241 228 217 216 189 173 161 157 153 149 142
313 310 317 320 311 319 325 322 323 323 328 323 328 65 78 78 110 159 201 233 240 272 295 154 164 200 189 231 195 185 220 232 226 243 236 221 188 228 239 255 255 245 230 237 204 200 197 182 173 166 162 160 155 150
306 306 311 313 312 318 325 325 327 333 338 349 68 76 100 136 332 95 194 200 203 195 231 230 144 183 196 177 156 197 199 288 271 240 306 233 256 254 260 259 262 265 286 225 178 175 182 184 180 172 169 165 162 157
303 302 308 306 314 319 323 325 333 338 352 16 31 16 27 118 100 157 286 221 178 201 184 215 197 178 208 174 195 206 205 291 263 97 277 266 260 246 283 289 274 255 251 254 224 247 228 212 183 172 171 171 167 160
300 295 304 305 309 317 321 328 335 336 330 355 337 342 10 21 84 277 259 281 134 183 168 180 217 209 199 192 151 157 214 209 250 345 275 259 253 274 323 312 302 219 213 226 213 236 202 198 186 180 175 170 164 163
297 291 303 302 307 315 321 329 337 336 17 63 18 336 27 347 81 37 353 356 80 360 12 68 186 196 170 185 91 159 221 239 8 256 248 246 289 316 326 321 302 185 184 193 193 198 185 181 182 181 172 170 166 164
293 290 297 297 304 311 323 330 341 29 336 83 7 47 21 67 78 43 342 312 302 300 337 302 255 206 169 115 132 215 167 287 254 249 242 254 287 321 329 317 238 185 180 183 188 183 178 176 172 174 173 169 168 165
285 284 288 291 287 309 322 331 346 41 322 84 294 127 92 49 256 355 343 320 349 328 325 224 246 213 120 151 188 102 204 242 227 236 240 279 317 329 341 321 213 191 186 183 183 180 176 172 171 169 170 170 170 166
272 283 283 256 289 311 322 329 11 93 304 199 120 136 138 124 283 32 352 312 4 339 304 229 172 170 228 169 164 211 194 233 263 237 286 316 326 330 333 314 197 188 188 188 183 179 176 173 172 169 168 169 170 170
237 256 266 277 302 312 320 290 118 91 278 233 208 178 162 206 223 268 318 306 328 323 289 323 211 192 53 239 250 190 217 333 330 326 321 314 319 321 312 250 195 188 188 189 186 180 178 175 172 169 166 167 169 165
233 260 272 285 300 311 299 212 125 122 226 243 228 217 211 258 264 285 285 310 336 337 321 334 262 216 219 212 241 19 335 330 341 331 324 318 311 297 270 226 190 187 188 186 186 182 179 175 172 171 168 165 164 162
255 267 270 279 304 309 253 201 157 135 216 216 243 255 251 261 266 274 291 299 289 273 295 288 245 217 218 197 261 314 323 329 320 326 316 308 302 285 259 227 199 189 189 188 181 179 177 179 178 172 168 165 166 167
236 252 268 277 273 266 246 187 179 124 183 201 226 249 252 270 284 286 294 304 276 257 239 229 262 33 18 340 323 313 312 322 324 324 322 338 309 282 252 233 213 194 187 184 184 184 181 177 176 174 173 170 174 170
234 252 260 243 241 232 256 212 136 144 181 198 231 280 274 281 283 274 225 188 220 220 220 245 281 310 318 317 318 315 309 310 304 305 306 296 309 295 254 230 218 205 196 190 187 182 182 180 176 173 171 182 178 174
221 220 205 208 228 223 218 204 143 161 173 115 220 259 260 267 266 227 283 233 237 238 243 279 305 314 315 314 311 306 304 301 297 291 297 287 282 290 260 235 219 210 204 201 193 187 184 180 177 175 179 176 173 171
190 194 202 211 197 200 194 179 194 185 143 221 257 261 241 254 244 297 250 227 241 226 233 301 331 333 323 319 310 302 299 297 293 291 286 283 276 279 266 242 228 220 210 201 200 194 185 180 177 180 177 175 171 168
171 186 204 196 193 171 159 154 166 171 124 159 213 264 238 243 321 274 252 254 217 204 220 306 335 335 332 327 321 314 302 294 292 285 284 277 269 275 269 246 232 225 221 212 199 193 186 181 180 179 175 175 174 170
177 213 197 192 178 133 150 123 79 144 220 190 194 265 244 357 275 259 246 265 224 216 238 301 319 324 319 317 314 311 308 296 288 288 277 278 268 258 260 246 231 226 219 210 198 192 187 183 179 179 178 177 172 170
214 197 174 190 170 182 171 149 188 196 158 185 226 252 95 128 227 247 238 238 231 225 265 299 313 314 311 310 306 304 304 295 283 278 277 274 266 257 250 244 227 217 212 211 206 192 187 182 180 179 176 174 173 169
215 218 193 184 160 139 105 96 125 143 178 201 189 155 124 193 240 249 240 242 255 276 296 305 306 305 303 302 301 296 293 288 277 273 272 263 260 255 248 244 237 228 213 205 204 198 189 180 179 177 173 171 170 170
205 169 181 177 158 164 136 149 175 203 203 178 140 180 192 201 231 214 230 276 294 305 306 307 305 303 297 296 296 293 290 284 274 268 262 256 254 248 238 237 236 232 216 206 198 189 185 181 179 178 173 165 161 162
183 174 152 132 138 191 210 191 209 209 186 175 171 207 234 225 259 277 289 299 303 302 304 304 305 297 291 293 290 289 284 276 266 257 253 252 250 240 225 220 217 216 208 196 188 181 179 176 175 168 167 164 157 159
183 171 143 165 168 210 214 199 209 193 192 202 225 256 265 271 282 289 292 298 299 298 300 303 304 300 299 295 293 284 272 265 251 242 241 249 249 245 221 208 204 204 196 186 179 176 175 171 167 165 165 165 163 165
160 174 128 169 218 207 203 200 204 216 229 240 244 254 265 286 289 295 294 292 287 295 301 302 302 302 299 296 296 295 293 273 261 245 229 238 252 234 213 201 196 193 188 183 177 171 165 163 166 166 159 157 161 158
158 175 145 174 234 187 174 187 194 219 240 238 241 245 278 273 276 282 278 278 298 305 306 309 313 313 300 290 285 282 283 272 276 246 221 230 233 210 198 190 185 183 179 172 166 164 166 163 158 152 156 161 155 155
121 135 131 121 123 181 177 172 174 297 249 265 265 259 241 250 254 262 276 283 302 311 323 340 335 335 345 340 312 302 302 287 248 219 216 214 202 189 185 180 176 174 171 167 161 157 158 153 148 156 157 155 154 153